Wausau, WI

1:05 AM CDT on April 23, 2017 (GMT -0500)
Wausau Downtown

Weather History for KAUW - November, 2011

Change the Weather History Date:

Tuesday, November 29, 2011

  Actual Average Record
Temperature  
Mean Temperature 30 °F 25 °F  
Max Temperature 37 °F 33 °F 60 °F (1998)
Min Temperature 22 °F 18 °F -11 °F (1976)
Degree Days  
Heating Degree Days 35 40  
Month to date heating degree days 808 938  
Since 1 July heating degree days 1552 1822  
Cooling Degree Days 0 0  
Month to date cooling degree days 0 0  
Year to date cooling degree days 558 407  
Moisture  
Dew Point 18 °F    
Average Humidity 62    
Maximum Humidity 81    
Minimum Humidity 43    
Precipitation  
Precipitation 0.00 in 0.06 in 0.79 in (1975)
Month to date precipitation 1.36 1.94  
Year to date precipitation 34.01 30.99  
Snow  
Snow 0.00 in 0.30 in 4.00 in (1902)
Month to date snowfall 3.7 6.5  
Since 1 July snowfall 3.7 7.9  
Snow Depth 0.00 in    
Sea Level Pressure  
Sea Level Pressure 30.17 in    
Wind  
Wind Speed 9 mph (North)    
Max Wind Speed 18 mph    
Max Gust Speed 29 mph    
Visibility 10 miles    
Events      
T = Trace of Precipitation, MM = Missing Value Source: NWS Daily Summary

Daily Weather History Graph

Daily Weather History Graph

Search for Another Location

Airport or City:

Trip Planner

Search our weather history database for the weather conditions in past years. The results will help you decide how hot, cold, wet, or windy it might be!

Date:

Astronomy

Nov. 29, 2011 Rise Set
Actual Time 7:13 AM CST 4:19 PM CST
Civil Twilight 6:40 AM CST 4:52 PM CST
Nautical Twilight 6:04 AM CST 5:28 PM CST
Astronomical Twilight 5:29 AM CST 6:04 PM CST
Moon 10:55 AM CST (11/29) 9:18 PM CST (11/29)
Length of Visible Light 10h 11m
Length of Day
9h 05m
Waxing Crescent, 24% of the Moon is Illuminated
Nov 29
Waxing Crescent
Dec 2
First Quarter
Dec 10
Full
Dec 17
Last Quarter
Dec 24
New

Hourly Weather History & Observations

Time (CST) Temp. Windchill Dew Point Humidity Pressure Visibility Wind Dir Wind Speed Gust Speed Precip Events Conditions
12:54 AM 32.0 °F 23.6 °F 25.0 °F 75% 30.14 in 10.0 mi North 10.4 mph - N/A   Clear
1:54 AM 30.9 °F 22.8 °F 25.0 °F 79% 30.15 in 10.0 mi North 9.2 mph - N/A   Clear
2:54 AM 32.0 °F 23.0 °F 25.0 °F 75% 30.15 in 10.0 mi North 11.5 mph 19.6 mph N/A   Clear
3:54 AM 32.0 °F 22.5 °F 21.0 °F 64% 30.18 in 10.0 mi North 12.7 mph 28.8 mph N/A   Clear
4:54 AM 30.9 °F 22.2 °F 19.9 °F 64% 30.21 in 10.0 mi North 10.4 mph - N/A   Clear
5:54 AM 30.9 °F 22.2 °F 19.0 °F 61% 30.21 in 10.0 mi North 10.4 mph - N/A   Clear
6:54 AM 28.9 °F 21.1 °F 18.0 °F 64% 30.21 in 10.0 mi North 8.1 mph - N/A   Clear
7:54 AM 28.0 °F 18.6 °F 17.1 °F 63% 30.22 in 10.0 mi NNE 10.4 mph - N/A   Clear
8:54 AM 28.0 °F 20.8 °F 17.1 °F 63% 30.23 in 10.0 mi NNE 6.9 mph 16.1 mph N/A   Clear
9:54 AM 28.9 °F 19.2 °F 17.1 °F 61% 30.22 in 10.0 mi NNE 11.5 mph 26.5 mph N/A   Clear
10:54 AM 30.9 °F 22.8 °F 17.1 °F 57% 30.23 in 10.0 mi North 9.2 mph 18.4 mph N/A   Clear
11:54 AM 33.1 °F 24.9 °F 17.1 °F 52% 30.20 in 10.0 mi North 10.4 mph - N/A   Clear
12:54 PM 35.1 °F 27.4 °F 17.1 °F 48% 30.18 in 10.0 mi NNW 10.4 mph 17.3 mph N/A   Clear
1:54 PM 36.0 °F 29.0 °F 15.1 °F 43% 30.16 in 10.0 mi North 9.2 mph - N/A   Clear
2:54 PM 36.0 °F 27.5 °F 16.0 °F 44% 30.14 in 10.0 mi NNW 12.7 mph - N/A   Clear
3:54 PM 34.0 °F 26.0 °F 14.0 °F 44% 30.15 in 10.0 mi North 10.4 mph - N/A   Clear
5:54 PM 30.0 °F 23.2 °F 16.0 °F 56% 30.17 in 10.0 mi North 6.9 mph - N/A   Clear
6:54 PM 28.9 °F 22.8 °F 15.1 °F 56% 30.15 in 10.0 mi North 5.8 mph - N/A   Clear
7:54 PM 27.0 °F 23.0 °F 16.0 °F 63% 30.14 in 10.0 mi NNW 3.5 mph - N/A   Clear
8:54 PM 26.1 °F 16.8 °F 16.0 °F 66% 30.13 in 10.0 mi NW 9.2 mph - N/A   Clear
9:54 PM 25.0 °F 16.3 °F 17.1 °F 72% 30.11 in 10.0 mi NW 8.1 mph - N/A   Clear
10:54 PM 23.0 °F 17.0 °F 17.1 °F 78% 30.09 in 10.0 mi NW 4.6 mph - N/A   Clear
11:54 PM 21.9 °F 13.4 °F 17.1 °F 82% 30.08 in 10.0 mi NW 6.9 mph - N/A   Clear